Olive Branch, MS

11:56 PM CST on December 11, 2017 (GMT -0600)
Olive Branch

Weather History for KOLV - May, 2013

Change the Weather History Date:

Wednesday, May 22, 2013

  Actual Average (KMEM) Record (KMEM)
Temperature  
Mean Temperature 69 °F -  
Max Temperature 78 °F 81 °F 96 °F (1987)
Min Temperature 60 °F 63 °F 41 °F (1883)
Cooling Degree Days 4    
Growing Degree Days 19 (Base 50)    
Moisture  
Dew Point 65 °F    
Average Humidity 91    
Maximum Humidity 100    
Minimum Humidity 61    
Precipitation  
Precipitation 0.21 in - - ()
Sea Level Pressure  
Sea Level Pressure 29.87 in    
Wind  
Wind Speed 6 mph (SSW)    
Max Wind Speed 17 mph    
Max Gust Speed 24 mph    
Visibility 9 miles    
Events      
Averages and records for this station are not official NWS values.
T = Trace of Precipitation, MM = Missing Value Source: NWS Daily Summary

Daily Weather History Graph

Daily Weather History Graph

Search for Another Location

Airport or City:

Trip Planner

Search our weather history database for the weather conditions in past years. The results will help you decide how hot, cold, wet, or windy it might be!

Date:

Astronomy

May. 22, 2013 Rise Set
Actual Time 5:50 AM CDT 8:01 PM CDT
Civil Twilight 5:22 AM CDT 8:29 PM CDT
Nautical Twilight 4:47 AM CDT 9:04 PM CDT
Astronomical Twilight 4:09 AM CDT 9:42 PM CDT
Moon 5:28 PM CDT (5/22) 3:48 AM CDT (5/22)
Length of Visible Light 15h 07m
Length of Day
14h 10m
Waxing Gibbous, 91% of the Moon is Illuminated
May 22
Waxing Gibbous
May 24
Full
May 31
Last Quarter
Jun 8
New
Jun 16
First Quarter

Hourly Weather History & Observations

Time (CDT) Temp. Dew Point Humidity Pressure Visibility Wind Dir Wind Speed Gust Speed Precip Events Conditions
12:15 AM 62.6 °F - N/A% 29.94 in 3.0 mi West 5.8 mph - 0.07 in   Overcast
12:35 AM 62.6 °F - N/A% 29.91 in 4.0 mi Calm Calm - 0.14 in   Overcast
12:55 AM 62.6 °F - N/A% 29.88 in 6.0 mi Calm Calm - 0.17 in   Mostly Cloudy
1:15 AM 62.6 °F - N/A% 29.84 in 5.0 mi ESE 10.4 mph - 0.01 in   Mostly Cloudy
1:35 AM 62.6 °F - N/A% 29.85 in 5.0 mi SE 11.5 mph - 0.02 in   Overcast
1:55 AM 62.6 °F - N/A% 29.84 in 5.0 mi SE 11.5 mph - 0.04 in   Overcast
2:15 AM 62.6 °F - N/A% 29.80 in 10.0 mi SSE 17.3 mph 23.0 mph 0.00 in   Mostly Cloudy
2:35 AM 62.6 °F - N/A% 29.79 in 10.0 mi SSE 16.1 mph 24.2 mph 0.00 in   Clear
2:55 AM 62.6 °F - N/A% 29.77 in 10.0 mi SE 16.1 mph 20.7 mph 0.00 in   Partly Cloudy
3:15 AM 62.6 °F - N/A% 29.80 in 10.0 mi SSE 6.9 mph - 0.00 in   Partly Cloudy
3:35 AM 62.6 °F 62.6 °F 100% 29.83 in 10.0 mi Calm Calm - 0.00 in   Partly Cloudy
3:55 AM 62.6 °F 62.6 °F 100% 29.85 in 10.0 mi WNW 9.2 mph - 0.00 in   Scattered Clouds
4:15 AM 62.6 °F 62.6 °F 100% 29.86 in 10.0 mi WSW 3.5 mph - 0.00 in   Mostly Cloudy
4:35 AM 62.6 °F 62.6 °F 100% 29.86 in 9.0 mi Calm Calm - 0.00 in   Mostly Cloudy
4:55 AM 62.6 °F 62.6 °F 100% 29.87 in 9.0 mi Calm Calm - 0.00 in   Overcast
5:15 AM 62.6 °F - N/A% 29.87 in 9.0 mi South 4.6 mph - 0.00 in   Overcast
5:35 AM 62.6 °F - N/A% 29.87 in 8.0 mi SSW 3.5 mph - 0.00 in   Overcast
5:55 AM 62.6 °F - N/A% 29.87 in 10.0 mi SW 3.5 mph - 0.00 in   Overcast
6:15 AM 62.6 °F - N/A% 29.87 in 10.0 mi SW 3.5 mph - 0.00 in   Overcast
6:35 AM 60.8 °F - N/A% 29.87 in 9.0 mi SW 4.6 mph - 0.00 in   Overcast
6:55 AM 62.6 °F - N/A% 29.87 in 10.0 mi SSW 5.8 mph - 0.00 in   Overcast
8:50 AM 64.4 °F 64.4 °F 100% 29.87 in 10.0 mi South 11.5 mph - N/A   Mostly Cloudy
9:50 AM 66.2 °F 66.2 °F 100% 29.89 in 10.0 mi South 11.5 mph - N/A   Mostly Cloudy
10:50 AM 69.8 °F 69.8 °F 100% 29.89 in 10.0 mi SSW 12.7 mph - N/A   Mostly Cloudy
11:50 AM 71.6 °F 68.0 °F 88% 29.89 in 10.0 mi SW 12.7 mph - N/A   Mostly Cloudy
12:50 PM 71.6 °F 69.8 °F 94% 29.90 in 10.0 mi WSW 10.4 mph - N/A   Mostly Cloudy
1:45 PM 75.2 °F 68.0 °F 78% 29.89 in 10.0 mi WSW 11.5 mph - N/A   Mostly Cloudy
3:50 PM 77.0 °F 64.4 °F 65% 29.87 in 10.0 mi SW 6.9 mph - N/A   Mostly Cloudy
5:50 PM 78.8 °F 64.4 °F 61% 29.87 in 10.0 mi SSW 10.4 mph - N/A   Mostly Cloudy
6:50 PM 75.2 °F 64.4 °F 69% 29.86 in 10.0 mi WSW 9.2 mph - N/A   Partly Cloudy
7:50 PM 73.4 °F 66.2 °F 78% 29.88 in 10.0 mi WSW 4.6 mph - N/A   Partly Cloudy
9:15 PM 69.8 °F 64.4 °F 83% 29.89 in 10.0 mi Calm Calm - 0.00 in   Clear
9:35 PM 69.8 °F 64.4 °F 83% 29.90 in 10.0 mi SW 4.6 mph - 0.00 in   Clear
9:55 PM 68.0 °F 64.4 °F 88% 29.90 in 10.0 mi Calm Calm - 0.00 in   Clear
10:15 PM 66.2 °F 66.2 °F 100% 29.91 in 10.0 mi Calm Calm - 0.00 in   Clear
10:35 PM 66.2 °F 66.2 °F 100% 29.91 in 10.0 mi South 4.6 mph - 0.00 in   Clear
10:55 PM 66.2 °F 66.2 °F 100% 29.92 in 10.0 mi Calm Calm - 0.00 in   Clear
11:15 PM 64.4 °F 64.4 °F 100% 29.92 in 9.0 mi Calm Calm - 0.00 in   Clear
11:35 PM 64.4 °F 64.4 °F 100% 29.92 in 10.0 mi Calm Calm - 0.00 in   Clear
11:55 PM 64.4 °F 64.4 °F 100% 29.92 in 10.0 mi SSW 4.6 mph - 0.00 in   Clear